Content
SEND FEEDBACK

Daily
Averages
Monthly
Summary
Russia

SOCHI, RUSSIA


Home > Europe > Russia
Elevation: 52 feet     Latitude: 43 27N     Longitude: 039 54E

WEATHER
 
SELECT A DAY
Number of Records: 200,600;   Date Range: 3/24/97 - 7/29/14
 
SHARE

PRINT THIS DATA

[ ← Previous Day ]
WEATHER ALMANAC - FEBRUARY 13, 2013
[ Next Day → ]
[ °C ]   °F
Weather ElementAverageHighLow
Temperature47.6 °F53.6 °F (1:00 pm)41 °F (11:30 pm)
Dewpoint43.6 °F46 °F (1:00 am)39.2 °F (10:00 pm)
Humidity85.9 %100 % (7:30 am)66 % (1:00 pm)
Barometer30.25 in30.30 in (10:00 am)30.21 in (12:30 am)
Wind Speed3.1 mph8.9 mph (2:00 pm)
Weather ElementAverage
Visibility5.9 mi
Wind DirectionESE (128.5 °)

Weather ElementTotal
Precipitation---
Heating Degree Days17.7 (Base 65)
Averaged from 55 records on February 13, 2013
WEATHER CONDITIONS BREAKOUT
WIND DIRECTION BREAKOUT
WEATHER BY HOUR - FEBRUARY 13, 2013
[ °C ]   °F
Local TimeTemperatureDewpointHumidityBarometerVisibilityWind DirectionWind SpeedGust SpeedPrecipitationEventsConditions
12:30 AM48.2 °F44.6 °F87 %30.21 in6.2 miCalmRainLight Rain Showers
1:00 AM47.0 °F46.0 °F97 %30.23 in2.0 miNorth (350°)2.2 mphRainLight Rain Showers
1:00 AM48.2 °F44.6 °F87 %30.21 in6.2 miCalmOvercast
1:30 AM48.2 °F44.6 °F87 %30.21 in6.2 miNW (320°)4.5 mphOvercast
2:00 AM46.4 °F44.6 °F93 %30.21 in6.2 miNNW (330°)2.2 mphOvercast
2:30 AM46.4 °F44.6 °F93 %30.24 in6.2 miENE (70°)4.5 mphOvercast
3:00 AM46.4 °F44.6 °F93 %30.24 in6.2 miCalmOvercast
3:30 AM46.4 °F44.6 °F93 %30.24 in6.2 miEast (100°)2.2 mphOvercast
4:00 AM47.0 °F46.0 °F95 %30.25 in2.0 miEast (90°)2.2 mphRainLight Rain Showers
4:00 AM46.4 °F44.6 °F93 %30.24 in6.2 miEast (90°)2.2 mphRainLight Rain Showers
4:30 AM46.4 °F44.6 °F93 %30.24 in6.2 miCalmOvercast
5:00 AM46.4 °F44.6 °F93 %30.24 in6.2 miNorth (350°)2.2 mphOvercast
5:30 AM46.4 °F44.6 °F93 %30.24 in6.2 miNNE (30°)2.2 mphOvercast
6:00 AM46.4 °F44.6 °F93 %30.24 in6.2 miCalmOvercast
6:30 AM46.4 °F44.6 °F93 %30.24 in6.2 miCalmMostly Cloudy
7:00 AM46.0 °F45.0 °F96 %30.26 in2.0 miCalmPartly Cloudy
7:00 AM46.4 °F44.6 °F93 %30.24 in6.2 miCalmMostly Cloudy
7:30 AM44.6 °F44.6 °F100 %30.24 in6.2 miCalmOvercast
8:00 AM44.6 °F44.6 °F100 %30.27 in6.2 miCalmMostly Cloudy
8:30 AM44.6 °F44.6 °F100 %30.27 in6.2 miENE (60°)2.2 mphOvercast
9:00 AM44.6 °F44.6 °F100 %30.27 in6.2 miEast (80°)4.5 mphOvercast
9:30 AM46.4 °F44.6 °F93 %30.27 in6.2 miENE (60°)2.2 mphMostly Cloudy
10:00 AM46.0 °F45.0 °F94 %30.30 in6.0 miEast (90°)4.5 mphPartly Cloudy
10:00 AM46.4 °F44.6 °F93 %30.27 in6.2 miEast (80°)4.5 mphMostly Cloudy
10:30 AM48.2 °F44.6 °F87 %30.27 in6.2 miEast (90°)4.5 mphMostly Cloudy
11:00 AM48.2 °F44.6 °F87 %30.27 in6.2 miEast (90°)4.5 mphMostly Cloudy
11:30 AM50.0 °F44.6 °F82 %30.27 in6.2 miEast (90°)4.5 mphMostly Cloudy
12:00 PM50.0 °F44.6 °F82 %30.30 in6.2 miEast (100°)4.5 mphMostly Cloudy
12:30 PM50.0 °F41.0 °F71 %30.30 in6.2 miCalmMostly Cloudy
1:00 PM52.0 °F44.0 °F66 %30.30 in6.0 miNNE (20°)2.2 mphMostly Cloudy
1:00 PM53.6 °F42.8 °F67 %30.27 in6.2 miESE (120°)2.2 mphMostly Cloudy
1:30 PM51.8 °F42.8 °F71 %30.27 in6.2 miSouth (190°)2.2 mphMostly Cloudy
2:00 PM51.8 °F42.8 °F71 %30.27 in6.2 miSouth (190°)8.9 mphScattered Clouds
2:30 PM51.8 °F42.8 °F71 %30.27 in6.2 miSouth (180°)6.7 mphScattered Clouds
3:00 PM51.8 °F42.8 °F71 %30.27 in6.2 miSSW (210°)6.7 mphScattered Clouds
3:30 PM51.8 °F42.8 °F71 %30.27 in6.2 miWSW (240°)6.7 mphMostly Cloudy
4:00 PM53.0 °F46.0 °F69 %30.28 in6.0 miWest (260°)4.5 mphOvercast
4:00 PM51.8 °F42.8 °F71 %30.27 in6.2 miWSW (250°)6.7 mphOvercast
4:30 PM50.0 °F42.8 °F76 %30.27 in6.2 miWest (280°)6.7 mphOvercast
5:00 PM50.0 °F42.8 °F76 %30.27 in6.2 miWest (280°)4.5 mphOvercast
5:30 PM50.0 °F42.8 °F76 %30.24 in6.2 miWNW (290°)6.7 mphOvercast
6:00 PM51.8 °F42.8 °F71 %30.24 in6.2 miWNW (290°)4.5 mphOvercast
6:30 PM50.0 °F42.8 °F76 %30.24 in6.2 miWest (280°)4.5 mphOvercast
7:00 PM48.0 °F44.0 °F81 %30.26 in12.0 miWNW (300°)4.5 mphOvercast
7:00 PM48.2 °F42.8 °F82 %30.24 in6.2 miWNW (290°)4.5 mphOvercast
7:30 PM48.2 °F42.8 °F82 %30.24 in6.2 miWNW (290°)2.2 mphOvercast
8:00 PM46.4 °F42.8 °F87 %30.24 in6.2 miCalmScattered Clouds
8:30 PM44.6 °F42.8 °F93 %30.24 in6.2 miNorth (10°)2.2 mphScattered Clouds
9:00 PM44.6 °F42.8 °F93 %30.24 in4.3 miEast (90°)2.2 mphScattered Clouds
9:30 PM42.8 °F41.0 °F93 %30.24 in5.0 miEast (80°)6.7 mphScattered Clouds
10:00 PM44.0 °F42.0 °F92 %30.25 in2.0 miEast (90°)2.2 mph
10:00 PM42.8 °F39.2 °F87 %30.21 in6.2 miEast (80°)6.7 mphClear
10:30 PM42.8 °F39.2 °F87 %30.21 in5.6 miCalmClear
11:00 PM42.8 °F41.0 °F93 %30.21 in5.6 miEast (100°)2.2 mphClear
11:30 PM41.0 °F39.2 °F93 %30.21 in6.2 miENE (60°)2.2 mphClear
Hourly data recorded from URSS, located miles away from Sochi, Russia







STORIES FROM OUR PARTNERS